Regional Weather Roundup
Issued by NWS

Home | Current Version | Previous Version | Graphics & Text | Print | Product List | Glossary On
Versions: 1 2 3 4 5 6 7 8 9 10 11 12 13 14 15 16 17 18 19 20 21 22 23 24 25 26 27 28 29 30 31 32 33 34 35 36 37 38 39 40 41 42 43 44 45 46 47 48 49 50
000
ASUS44 KMEG 282110
RWRTN
TENNESSEE HOURLY STATE WEATHER ROUNDUP
NATIONAL WEATHER SERVICE MEMPHIS TN
400 PM CDT SAT MAR 28 2015

TNZ002-004-019-021-049-052-054-088>092-282200-
WEST TENNESSEE

CITY           SKY/WX    TMP DP  RH WIND       PRES   REMARKS
MEMPHIS INTL   CLOUDY    42  25  50 E3        30.27F
NWS MEMPHIS      N/A     42 N/A N/A MISG        N/A
JACKSON        CLOUDY    45  21  38 NW6       30.26F
DYERSBURG      PTSUNNY   45  18  33 E3        30.28F
UNION CITY     SUNNY     45  23  42 NW5       30.26F
PARIS          SUNNY     45  16  31 VRB5      30.26F
LEXINGTON      SUNNY     46  10  23 VRB5      30.23F
SAVANNAH       MOSUNNY   45  18  33 W5        30.26F
$$

TNZ008-025-027-028-033-062-065-066-282200-
NORTH MIDDLE TENNESSEE

CITY           SKY/WX    TMP DP  RH WIND       PRES   REMARKS
NASHVILLE      MOSUNNY   48  10  21 N10       30.25F
CLARKSVILLE    SUNNY     44  15  31 MISG      30.27F
SMYRNA         SUNNY     46  12  25 NW10      30.26F
COOKEVILLE     SUNNY     45  12  26 NE9       30.20F
CROSSVILLE     SUNNY     41   5  22 NW9       30.17S
$$

TNZ061-075-076-078-094-096-097-282200-
SOUTH MIDDLE TENNESSEE

CITY           SKY/WX    TMP DP  RH WIND       PRES   REMARKS
FAYETTEVILLE   SUNNY     45  14  29 N8        30.21F
TULLAHOMA      SUNNY     45   5  19 N12G20    30.22S
WINCHESTER     SUNNY     45  12  26 NW10      30.21F
MCMINNVILLE    SUNNY     45   9  23 N10       30.21S
COLUMBIA       SUNNY     46  16  29 N8        30.22F
SHELBYVILLE    SUNNY     46  12  25 W7        30.24S
$$

TNZ017-018-042-046-047-282200-
NORTHEAST TENNESSEE

CITY           SKY/WX    TMP DP  RH WIND       PRES   REMARKS
TRI CITIES     MOSUNNY   42  14  32 N13       30.14R
ELIZABETHTON   PTCLDY    37  12  35 W9        30.12R WCI  31
$$

TNZ012-013-036-069-073-074-282200-
CENTRAL EAST TENNESSEE

CITY           SKY/WX    TMP DP  RH WIND       PRES   REMARKS
KNOXVILLE      MOSUNNY   46  15  28 SW8G17    30.16F
OAK RIDGE      SUNNY     48  10  21 VRB7      30.18S
GATLINBURG     CLEAR     43  10  26 NW5       30.17R
MORRISTOWN     PTCLDY    43  16  33 VRB6      30.16S
$$

TNZ083-085-099-282200-
SOUTHEAST TENNESSEE

CITY           SKY/WX    TMP DP  RH WIND       PRES   REMARKS
CHATTANOOGA    MOSUNNY   52  11  19 N16G23    30.17F
$$

SKY/WX REPORTED AS FAIR MEANS FEW OR NO CLOUDS BELOW
12 THOUSAND FEET.




USA.gov is the U.S. government's official web portal to all federal, state and local government web resources and services.